cover

 

Get it on iTunes StoreListen on Apple Music

Ronski Speed

#Trackname / Key / BPM / Publish dateArtists, Remixers / Label
1 140 bpm, 6B / Bb major, 2018-09-03, Trance,  0  3
2 138 bpm, 6B / Bb major, 2018-09-03, Trance,  2  3
3 130 bpm, 7A / D minor, 2018-09-03, Trance,  0  3
4 132 bpm, 9A / E minor, 2018-08-31, Trance,  0  100
5 138 bpm, 10A / B minor, 2018-07-06, Trance,  0  20
6 138 bpm, 6B / Bb major, 2018-06-18, Trance,  4  1
7 124 bpm, 4B / Ab major, 2018-05-28, Trance,  0  2
8 134 bpm, 4A / F minor, 2018-05-28, Trance,  1  2
9 134 bpm, 4B / Ab major, 2018-05-25, Trance,  0  30
10 132 bpm, 9A / E minor, 2018-05-25, Trance,  1  21
11 132 bpm, 9A / E minor, 2018-05-18, Trance,  0  21
12 132 bpm, 9A / E minor, 2018-04-02, Trance,  5  1
13 138 bpm, 11B / A major, 2018-02-02, Trance,  0  100
14 137 bpm, 9A / E minor, 2018-01-03, Trance,  0  3
15 138 bpm, 8A / A minor, 2018-01-03, Trance,  0  3
16 138 bpm, 9A / E minor, 2018-01-03, Trance,  1  3
17 138 bpm, 11B / A major, 2017-12-22, Trance,  0  15
18 138 bpm, 10A / B minor, 2017-12-22, Trance,  0  26
19 138 bpm, 7A / D minor, 2017-12-22, Trance,  0  25
20 123 bpm, 12B / E major, 2017-12-15, Deep House,  0  26
21 134 bpm, 8A / A minor, 2017-12-15, Trance,  0  26
22 138 bpm, 9A / E minor, 2017-12-15, Dance,  0  26
23 138 bpm, 7A / D minor, 2017-12-15, Trance,  0  26
24 138 bpm, 5A / C minor, 2017-12-11, Trance,  1  2
25 132 bpm, 5A / C minor, 2017-12-11, Trance,  1  2
26 138 bpm, 7A / D minor, 2017-12-08, Trance,  0  25
27 138 bpm, 10A / B minor, 2017-12-01, Trance,  0  20
28 134 bpm, 12A / Db minor, 2017-12-01 (2011-04-05), Trance,  0  1
29 128 bpm, 7A / D minor, 2017-12-01 (2010-09-28), Trance,  0  24
30 138 bpm, 7A / D minor, 2017-11-20, Trance,  1  4
31 138 bpm, 8A / A minor, 2017-11-10, Trance,  0  40
32 132 bpm, 7A / D minor, 2017-11-10, Trance,  0  40
33 138 bpm, 11B / A major, 2017-11-10, Trance,  4  1
34 138 bpm, 7A / D minor, 2017-10-16, Trance,  1  1
35 134 bpm, 11A / F# minor, 2017-10-13, Trance,  0  21
36 134 bpm, 8A / A minor, 2017-10-06, Trance,  3  3
37 138 bpm, 6B / Bb major, 2017-09-29, Trance,  0  20
38 134 bpm, 4B / Ab major, 2017-09-22, Trance,  0  40
39 134 bpm, 4B / Ab major, 2017-09-22, Trance,  0  40
40 130 bpm, 12A / Db minor, 2017-09-08, Trance,  0  30
41 134 bpm, 9B / G major, 2017-08-25, Trance,  0  16
42 126 bpm, 11B / A major, 2017-07-31, Trance,  4  2
43 134 bpm, 11A / F# minor, 2017-07-31, Trance,  4  2
44 138 bpm, 4B / Ab major, 2017-07-28, Trance,  0  25
45 128 bpm, 11A / F# minor, 2017-06-30, Trance,  0  30
46 130 bpm, 10A / B minor, 2017-06-30, Trance,  0  24
47 138 bpm, 6B / Bb major, 2017-06-26, Trance,  1  2
48 138 bpm, 3A / Bb minor, 2017-05-29, Trance,  3  2
49 138 bpm, 3A / Bb minor, 2017-05-29, Trance,  0  2
50 138 bpm, 10A / B minor, 2017-05-24, Trance,  0  25
51 138 bpm, 10A / B minor, 2017-05-19, Trance,  0  20
52 138 bpm, 10A / B minor, 2017-04-28, Trance,  0  25
53 138 bpm, 4A / F minor, 2017-04-28, Trance,  0  25
54 138 bpm, 10A / B minor, 2017-04-28, Trance,  0  20
55 138 bpm, 10B / D major, 2017-04-21, Trance,  0  20
56 138 bpm, 8B / C major, 2017-04-14, Trance,  0  40
57 138 bpm, 10A / B minor, 2017-04-07, Trance,  0  10
58 138 bpm, 1A / Ab minor, 2017-04-07, Trance,  0  13
59 138 bpm, 8B / C major, 2017-04-07, Trance,  0  25
60 134 bpm, 8A / A minor, 2017-03-10, Trance,  0  15
61 128 bpm, 1B / B major, 2017-02-27, Trance,  1  2
62 127 bpm, 1B / B major, 2017-02-27, House,  0  2
63 138 bpm, 8B / C major, 2017-02-27, Trance,  3  1
64 134 bpm, 8A / A minor, 2017-02-17, Trance,  0  21
65 138 bpm, 5A / C minor, 2017-02-10, Trance,  0  20
66 138 bpm, 7B / F major, 2017-02-10, Trance,  0  20
67 138 bpm, 10A / B minor, 2017-02-10, Trance,  0  20
68 138 bpm, 10A / B minor, 2017-01-27, Trance,  10  3
69 138 bpm, 1A / Ab minor, 2017-01-20, Trance,  0  2
70 138 bpm, 4A / F minor, 2017-01-13, Trance,  0  20
71 138 bpm, 10A / B minor, 2017-01-13, Trance,  0  25
72 132 bpm, 3A / Bb minor, 2016-12-30, Trance,  0  25
73 130 bpm, 7B / F major, 2016-12-26, Trance,  0  6
74 138 bpm, 7A / D minor, 2016-12-26, Trance,  1  6
75 130 bpm, 7A / D minor, 2016-12-26, Trance,  0  6
76 130 bpm, 7B / F major, 2016-12-26, Trance,  0  6
77 138 bpm, 7A / D minor, 2016-12-26, Trance,  0  6
78 130 bpm, 7A / D minor, 2016-12-26, Trance,  0  6
79 138 bpm, 10A / B minor, 2016-12-23, Trance,  1  26
80 138 bpm, 12B / E major, 2016-12-19, Trance,  1  6
81 134 bpm, 8A / A minor, 2016-12-12, Trance,  3  3
82 138 bpm, 4A / F minor, 2016-12-12, Trance,  0  51
83 138 bpm, 1B / B major, 2016-12-09, Trance,  0  100
84 138 bpm, 10A / B minor, 2016-12-09, Trance,  0  100
85 138 bpm, 10A / B minor, 2016-12-05, Trance,  2  3
86 132 bpm, 8A / A minor, 2016-11-25, Trance,  0  25
87 138 bpm, 10B / D major, 2016-11-25, Trance,  0  25
88 138 bpm, 3B / Db major, 2016-11-21, Trance,  5  1
89 138 bpm, 10A / B minor, 2016-11-04, Trance,  0  25
90 138 bpm, 4B / Ab major, 2016-10-24, Trance,  1  2
91 138 bpm, 4A / F minor, 2016-10-24, Trance,  0  2
92 138 bpm, 10A / B minor, 2016-10-21, Trance,  0  25
93 138 bpm, 10A / B minor, 2016-10-21, Trance,  0  20
94 132 bpm, 8A / A minor, 2016-10-10, Trance,  3  1
95 132 bpm, 5A / C minor, 2016-10-03, Trance,  0  6
96 132 bpm, 5A / C minor, 2016-10-03, Trance,  0  6
97 135 bpm, 5A / C minor, 2016-10-03, Trance,  1  6
98 128 bpm, 5A / C minor, 2016-10-03, Trance,  0  6
99 132 bpm, 5A / C minor, 2016-10-03, Trance,  0  6
100 130 bpm, 5A / C minor, 2016-10-03, Trance,  0  6
×

Sign in

Sign in to access your personalized pages, follow artists and labels you love, and create playlists fromyour favorite tracks.

Please wait...